N9WFD Weather Reports


Display with metric or nautical units.
time (UTC)temp
F
wind
direction
speed
MPH
gust
MPH
rain 1hr
in
rain 24hr
in
rain mn
in
humidity
%
barometer
mb
20260505124551 48 86 2.0 6.0 0.00 0.00 0.00 50 1007.5
20260505123053 48 53 4.0 8.0 0.00 0.00 0.00 49 1007.3
20260505121543 48 69 4.0 12.0 0.00 0.00 0.00 52 1007.6
20260505114536 48 62 2.0 5.0 0.00 0.00 0.00 53 1007.2
20260505113034 48 85 2.0 6.0 0.00 0.00 0.00 52 1006.2
20260505111504 48 123 2.0 9.0 0.00 0.00 0.00 51 1005.4
20260505101601 49 69 3.0 7.0 0.00 0.00 0.00 55 1005.6
20260505100052 49 113 1.0 3.0 0.00 0.00 0.00 54 1004.7
20260505094548 50 86 1.0 9.0 0.00 0.00 0.00 53 1004.9
20260505093048 50 100 5.0 11.0 0.00 0.00 0.00 53 1004.7
20260505091553 50 75 5.0 9.0 0.00 0.00 0.00 53 1004.8
20260505090042 51 98 3.0 13.0 0.00 0.00 0.00 51 1004.1
20260505084539 51 53 5.0 10.0 0.00 0.00 0.00 50 1004.0
20260505083046 52 113 4.0 11.0 0.00 0.00 0.00 49 1003.4
20260505081535 52 98 6.0 13.0 0.00 0.00 0.00 48 1003.2
20260505080033 53 71 4.0 12.0 0.00 0.00 0.00 47 1003.0
20260505074502 54 102 5.0 11.0 0.00 0.00 0.00 47 1002.7
20260505073002 56 107 3.0 14.0 0.00 0.00 0.00 47 1002.4
20260505071556 56 94 5.0 10.0 0.00 0.00 0.00 46 1001.9
20260505070105 57 85 2.0 10.0 0.00 0.00 0.00 44 1001.9
20260505064639 58 65 3.0 11.0 0.00 0.00 0.00 42 1001.6
20260505063058 58 69 5.0 13.0 0.00 0.00 0.00 41 1001.5
20260505061554 59 69 5.0 13.0 0.00 0.00 0.00 41 1001.4
20260505060053 59 83 6.0 13.0 0.00 0.00 0.00 40 1001.0
20260505054552 59 84 4.0 17.0 0.00 0.00 0.00 40 1001.0
20260505053050 60 75 6.0 12.0 0.00 0.00 0.00 39 1000.9
20260505051550 60 73 5.0 12.0 0.00 0.00 0.00 39 1000.7
20260505041544 63 60 6.0 16.0 0.00 0.00 0.00 38 1000.0
20260505040047 64 358 6.0 15.0 0.00 0.00 0.00 40 1000.0
20260505034556 65 29 5.0 11.0 0.00 0.00 0.00 39 999.7
20260505033042 66 48 4.0 14.0 0.00 0.00 0.00 39 999.2
20260505031539 67 50 7.0 15.0 0.00 0.00 0.00 39 999.1
20260505030046 67 59 6.0 21.0 0.00 0.00 0.00 42 998.9
20260505024516 65 353 1.0 7.0 0.00 0.00 0.00 64 998.8
20260505023008 66 354 7.0 12.0 0.00 0.00 0.00 62 998.6
20260505021506 66 19 5.0 11.0 0.00 0.00 0.00 61 998.1
20260505020005 67 348 7.0 17.0 0.00 0.00 0.00 61 997.8
20260505014508 67 317 6.0 12.0 0.00 0.00 0.00 63 997.0
20260505013003 67 325 5.0 16.0 0.00 0.00 0.00 62 996.9
20260505010112 69 4 5.0 10.0 0.00 0.00 0.00 52 996.7
20260505004631 71 317 4.0 10.0 0.00 0.00 0.00 47 996.1
20260505003101 71 337 3.0 10.0 0.00 0.00 0.00 45 995.4
20260505001558 72 14 9.0 16.0 0.00 0.00 0.00 43 995.3
20260505000110 73 21 8.0 17.0 0.00 0.00 0.00 41 995.3
20260504234554 74 331 5.0 11.0 0.00 0.00 0.00 39 995.3
20260504233053 74 33 6.0 16.0 0.00 0.00 0.00 38 995.4
20260504231619 73 45 7.0 11.0 0.00 0.00 0.00 41 995.7
20260504230047 71 323 7.0 17.0 0.00 0.00 0.00 46 995.9
20260504224546 71 2 7.0 14.0 0.00 0.00 0.00 46 996.4
20260504223047 74 349 13.0 29.0 0.00 0.00 0.00 38 996.3
20260504221612 77 24 7.0 13.0 0.00 0.00 0.00 34 996.1
20260504220013 78 304 9.0 19.0 0.00 0.00 0.00 31 996.1
20260504214511 78 77 8.0 15.0 0.00 0.00 0.00 31 996.2
20260504213019 79 331 10.0 19.0 0.00 0.00 0.00 30 996.3
20260504211506 79 351 10.0 18.0 0.00 0.00 0.00 29 996.5
20260504210002 79 6 9.0 18.0 0.00 0.00 0.00 29 996.8
20260504204501 79 26 12.0 22.0 0.00 0.00 0.00 28 996.8
20260504203057 79 8 10.0 27.0 0.00 0.00 0.00 27 997.0
20260504201555 78 20 6.0 26.0 0.00 0.00 0.00 29 997.1
20260504200052 78 2 9.0 18.0 0.00 0.00 0.00 29 997.4
20260504194554 78 341 13.0 21.0 0.00 0.00 0.00 28 997.6
20260504193047 77 4 12.0 20.0 0.00 0.00 0.00 28 998.1
20260504191606 77 33 11.0 20.0 0.00 0.00 0.00 30 998.1
20260504190041 77 42 14.0 25.0 0.00 0.00 0.00 31 998.2
20260504184549 76 343 14.0 23.0 0.00 0.00 0.00 31 998.1
20260504183035 75 331 12.0 23.0 0.00 0.00 0.00 30 998.3
20260504181533 75 25 12.0 24.0 0.00 0.00 0.00 31 998.3
20260504180033 74 4 11.0 21.0 0.00 0.00 0.00 32 998.4
20260504174525 74 5 10.0 22.0 0.00 0.00 0.00 32 998.6
20260504173019 74 355 11.0 16.0 0.00 0.00 0.00 34 998.9
20260504171519 73 48 10.0 25.0 0.00 0.00 0.00 36 999.3